N8LZG Weather Reports


time (UTC)temp
F
wind
direction
speed
knots
gust
knots
rain 1hr
in
rain 24hr
in
rain mn
in
humidity
%
barometer
mb
20260505041509 67 292 0.0 4.3 0.00 0.00 0.00 61 1006.0
20260505040018 67 246 1.7 4.3 0.00 0.00 0.00 61 1006.1
20260505034506 67 271 1.7 4.3 0.00 0.00 0.00 62 1006.1
20260505033012 67 207 0.9 5.2 0.00 0.00 0.00 61 1006.0
20260505031505 67 123 0.0 4.3 0.00 0.00 0.00 62 1006.1
20260505030013 67 267 0.0 2.6 0.00 0.00 0.00 62 1005.9
20260505024504 67 173 0.0 2.6 0.00 0.00 0.00 61 1005.7
20260505023004 68 207 0.0 1.7 0.00 0.00 0.00 61 1005.5
20260505021504 68 100 0.0 2.6 0.00 0.00 0.00 59 1005.3
20260505020007 69 139 0.0 2.6 0.00 0.00 0.00 58 1005.2
20260505014503 69 133 0.0 4.3 0.00 0.00 0.00 57 1005.1
20260505013104 69 142 0.9 3.5 0.00 0.00 0.00 56 1005.0
20260505011500 70 134 0.0 3.5 0.00 0.00 0.00 55 1004.9
20260505010108 71 225 0.0 3.5 0.00 0.00 0.00 53 1004.8
20260505004602 71 150 0.9 3.5 0.00 0.00 0.00 51 1004.8
20260505003059 72 171 0.0 7.0 0.00 0.00 0.00 50 1004.8
20260505001600 73 248 0.9 4.3 0.00 0.00 0.00 49 1004.9
20260505000107 73 11 0.9 8.7 0.00 0.00 0.00 48 1005.0
20260504234606 74 306 0.9 12.2 0.00 0.00 0.00 46 1005.2
20260504233058 75 157 1.7 7.8 0.00 0.00 0.00 46 1005.3
20260504231553 75 136 2.6 7.8 0.00 0.00 0.00 46 1005.3
20260504230053 74 283 2.6 9.6 0.00 0.00 0.00 47 1005.5
20260504224553 74 241 2.6 6.1 0.00 0.00 0.00 50 1005.6
20260504223052 75 285 1.7 3.5 0.00 0.00 0.00 51 1005.7
20260504221549 74 182 0.9 3.5 0.00 0.00 0.00 52 1005.6
20260504220055 74 154 1.7 5.2 0.00 0.00 0.00 50 1005.9
20260504214546 75 273 0.9 6.1 0.00 0.00 0.00 52 1006.3
20260504213103 75 135 0.9 5.2 0.00 0.00 0.00 50 1006.4
20260504211544 75 265 0.9 7.0 0.00 0.00 0.00 49 1006.5
20260504210040 75 243 1.7 8.7 0.00 0.00 0.00 49 1006.7
20260504204542 75 269 1.7 7.8 0.00 0.00 0.00 49 1006.9
20260504203035 74 299 0.9 6.1 0.00 0.00 0.00 51 1007.1
20260504201533 74 234 2.6 7.8 0.00 0.00 0.00 49 1007.2
20260504200030 74 283 1.7 8.7 0.00 0.00 0.00 52 1007.4
20260504194525 73 213 1.7 7.8 0.00 0.00 0.00 54 1007.8
20260504193022 71 298 0.9 5.2 0.00 0.00 0.00 60 1008.1
20260504191520 70 36 1.7 6.1 0.00 0.00 0.00 61 1008.6
20260504190019 68 248 0.9 9.6 0.00 0.00 0.00 61 1008.8
20260504184517 69 199 1.7 10.4 0.00 0.00 0.00 59 1008.8
20260504183015 69 248 1.7 7.8 0.00 0.00 0.00 58 1008.6
20260504181518 70 118 4.3 8.7 0.00 0.00 0.00 56 1008.3
20260504180013 70 252 3.5 8.7 0.00 0.00 0.00 57 1007.9
20260504174515 70 167 2.6 10.4 0.00 0.00 0.00 59 1007.8
20260504173007 69 180 2.6 7.0 0.00 0.00 0.00 62 1008.2
20260504171508 68 207 0.9 5.2 0.00 0.00 0.00 60 1007.8
20260504100114 50 113 0.0 1.7 0.00 0.00 0.00 71 1010.0
20260504081541 51 121 0.0 1.7 0.00 0.00 0.00 66 1010.8
20260504050021 51 111 0.0 0.9 0.00 0.00 0.00 64 1012.7
20260504044528 52 149 0.0 2.6 0.00 0.00 0.00 64 1012.7
20260504043027 52 174 0.0 0.9 0.00 0.00 0.00 62 1012.8